Regional Weather Roundup
Issued by NWS Sioux Falls, SD

Home | Current Version | Previous Version | Graphics & Text | Print | Product List | Glossary On
Versions: 1 2 3 4 5 6 7 8 9 10 11 12 13 14 15 16 17 18 19 20 21 22 23 24 25 26 27 28 29 30 31 32 33 34 35 36 37 38 39 40 41 42 43 44 45 46 47 48 49 50
000
ASUS43 KFSD 052102
RWRFSD

WEATHER ROUNDUP FOR SE SOUTH DAKOTA/SW MINNESOTA/NW IOWA
NATIONAL WEATHER SERVICE SIOUX FALLS SD
300 PM CST MON DEC 05 2016

NOTE: "FAIR" INDICATES FEW OR NO CLOUDS BELOW 12,000 FEET WITH NO
SIGNIFICANT WEATHER AND OR OBSTRUCTIONS TO VISIBILITY.


SDZ038>040-050-052>070-052200-
SOUTHEAST SOUTH DAKOTA

CITY           SKY/WX    TMP DP  RH WIND       PRES   REMARKS
CHAMBERLAIN    NOT AVBL
HURON          MOSUNNY   37  30  75 W20G29    29.50R
MADISON        FAIR      41  37  87 SW16G23   29.47R
MITCHELL       PTSUNNY   40  31  70 W22G29    29.53R
SIOUX FALLS    CLOUDY    44  34  67 S17G24    29.51R
WINNER         CLOUDY    32  24  72 NW32G45   29.63R WCI  17
YANKTON        CLOUDY    46  30  53 SW14      29.54R
$$

MNZ071-072-080-081-089-090-097-098-052200-
SOUTHWEST MINNESOTA

CITY           SKY/WX    TMP DP  RH WIND       PRES   REMARKS
FAIRMONT       CLOUDY    43  36  76 S30G39    29.56F
JACKSON        CLOUDY    43  32  65 S20       29.58R
LUVERNE        MOSUNNY   41  32  70 S18G26    29.53R
MARSHALL       CLOUDY    43  33  68 S21G30    29.48F
MONTEVIDEO     CLOUDY    37  34  87 S8        29.51R
PIPESTONE      MOSUNNY   41  34  75 SW20      29.48R
REDWOOD FALLS  CLOUDY    41  35  79 SE15      29.51F
TRACY          MOSUNNY   44  35  69 S20G32    29.48F
WINDOM         MOSUNNY   46  34  61 S17G28    29.54R
WORTHINGTON    MOSUNNY   43  34  70 S25G35    29.53R
$$

IAZ001>003-012>014-020>022-031-032-NEZ013-014-SDZ071-052200-
NORTHWEST IOWA

CITY           SKY/WX    TMP DP  RH WIND       PRES   REMARKS
CHEROKEE       CLOUDY    44  36  72 S22G31    29.59R
DENISON        CLOUDY    46  36  66 S20G26    29.60F
ESTHERVILLE    CLOUDY    44  36  73 S32G45    29.56F
LE MARS        CLOUDY    45  34  65 S20G33    29.56S
ORANGE CITY    CLOUDY    43  36  75 S22G28    29.55R
SHELDON        CLOUDY    43  36  75 S24G32    29.53S
SIOUX CITY     CLOUDY    47  35  63 S18G29    29.58F
SPENCER        CLOUDY    45  34  65 S31G41    29.58R
STORM LAKE     CLOUDY    43  36  75 S25G32    29.60S
$$

ABBREVIATIONS USED IN REMARKS
   TC - TEMPERATURE IN CELSIUS
  WCI - WIND CHILL INDEX
   HX - HEAT INDEX
  VSB - VISIBILITY




USA.gov is the U.S. government's official web portal to all federal, state and local government web resources and services.